Flag for U.S.A. Weather past 2 weeks in Dickinson, North Dakota, U.S.A.

Now
84 °F

Broken clouds.


Feels Like: 82 °F
Forecast: 54 / 82 °F
Wind: 8 mph from Northeast

Location: Dickinson Municipal Airport

Current Time: Jul 29, 2014 at 5:41:45 PM

Latest Report: Jul 29, 2014 at 4:56 PM


Visibility: 10 mi

Pressure: 30.09 "Hg

Humidity: 31%

Dew point: 50 °F

Location of DickinsonLocation

Historic Weather in Dickinson — Graph

°F

Dickinson temperature yesterday

Maximum temperature yesterday: 78 °F (at 2:56 PM)
Minimum temperature yesterday: 49 °F (at 1:56 AM)
Average temperature yesterday: 64 °F

Past Weeks' High & Low Weather Summary

 TemperatureHumidityPressure
High91 °F (Jul 20, 3:56 PM)100% (Jul 22, 2:59 AM)30.32 "Hg (Jul 22, 2:59 AM)
Low43 °F (Jul 15, 2:56 AM)26% (Jul 20, 2:56 PM)29.60 "Hg (Jul 20, 2:56 AM)
Average67 °F67%29.96 "Hg
* Reported Jul 14 3:56 PM — Jul 29 3:56 PM, Dickinson, Weather by CustomWeather, © 2014

Note: Actual official high and low records may vary slightly from our data, if they occured in-between our weather recording intervals... More about our weather records

Advertising

Dickinson weather history for previous 24 hours

 ConditionsComfort  
Time TempWeatherWind HumidityBarometerVisibility
3:56 PM
Jul 29
83 °FPassing clouds.5 mph32%30.11 "Hg10 mi
2:56 PM82 °FPassing clouds.7 mph34%30.12 "Hg10 mi
1:56 PM81 °FScattered clouds.6 mph37%30.14 "Hg10 mi
12:56 PM79 °FScattered clouds.6 mph41%30.16 "Hg10 mi
11:56 AM78 °FPassing clouds.8 mph45%30.17 "Hg10 mi
10:56 AM76 °FSunny.8 mph45%30.19 "Hg10 mi
9:56 AM75 °FScattered clouds.8 mph50%30.19 "Hg10 mi
8:56 AM70 °FOvercast.7 mph59%30.20 "Hg10 mi
7:56 AM63 °FSunny.6 mph73%30.20 "Hg10 mi
6:56 AM56 °FSunny.No wind87%30.20 "Hg10 mi
5:56 AM52 °FClear.6 mph89%30.19 "Hg10 mi
4:56 AM53 °FClear.3 mph86%30.19 "Hg10 mi
3:56 AM53 °FClear.9 mph86%30.19 "Hg10 mi
2:56 AM54 °FClear.8 mph86%30.20 "Hg10 mi
1:56 AM55 °FClear.9 mph83%30.21 "Hg10 mi
12:56 AM55 °FClear.8 mph83%30.22 "Hg10 mi
11:56 PM
Jul 28
57 °FClear.10 mph83%30.21 "Hg10 mi
10:56 PM58 °FClear.8 mph81%30.22 "Hg10 mi
9:56 PM59 °FClear.8 mph84%30.22 "Hg10 mi
8:56 PM62 °FSunny.8 mph78%30.22 "Hg10 mi
7:56 PM67 °FSunny.6 mph68%30.21 "Hg10 mi
6:56 PM74 °FSunny.7 mph53%30.21 "Hg10 mi
5:56 PM77 °FSunny.7 mph44%30.22 "Hg10 mi
Weather by CustomWeather, © 2014

See weather overviewHow to use our weather pages